This is the latest recevied weather packets stored in our database for station/object N2RDT. If no packets are shown the sender has not sent any weather packets the latest 10 day(s).
| Time | Temp. | Humidity | Pressure | Rain* | Wind** | Luminosity | Snow |
|---|---|---|---|---|---|---|---|
| 1777893582 | 9.44° C | 85% | 1017.8 hPa | 0 mm | - | 71 W/m² | - |
| 1777893279 | 9.44° C | 86% | 1018 hPa | 0 mm | - | 66 W/m² | - |
| 1777892975 | 8.89° C | 88% | 1017.8 hPa | 0 mm | - | 59 W/m² | - |
| 1777892672 | 8.33° C | 90% | 1017.8 hPa | 0 mm | - | 51 W/m² | - |
| 1777892368 | 7.78° C | 91% | 1017.7 hPa | 0 mm | - | 43 W/m² | - |
| 1777892064 | 7.22° C | 92% | 1017.6 hPa | 0 mm | - | 36 W/m² | - |
| 1777891762 | 7.22° C | 92% | 1017.5 hPa | 0 mm | - | 29 W/m² | - |
| 1777891458 | 6.67° C | 91% | 1017.6 hPa | 0 mm | - | 23 W/m² | - |
| 1777891154 | 7.22° C | 92% | 1017.5 hPa | 0 mm | - | 18 W/m² | - |
| 1777890849 | 6.67° C | 92% | 1017.3 hPa | 0 mm | - | 14 W/m² | - |
| 1777890545 | 6.67° C | 92% | 1017.4 hPa | 0 mm | - | 10 W/m² | - |
| 1777890240 | 6.67° C | 91% | 1017.5 hPa | 0 mm | - | 7 W/m² | - |
| 1777889937 | 6.67° C | 91% | 1017.4 hPa | 0 mm | - | 4 W/m² | - |
| 1777889635 | 6.67° C | 90% | 1017.4 hPa | 0 mm | - | 2 W/m² | - |
| 1777889332 | 6.67° C | 90% | 1017.4 hPa | 0 mm | - | 1 W/m² | - |
| 1777889029 | 6.67° C | 92% | 1017.2 hPa | 0 mm | - | 0 W/m² | - |
| 1777888727 | 6.67° C | 91% | 1017.4 hPa | 0 mm | - | 0 W/m² | - |
| 1777888422 | 6.67° C | 91% | 1017.4 hPa | 0 mm | - | 0 W/m² | - |
| 1777888118 | 6.67° C | 90% | 1017.5 hPa | 0 mm | - | 0 W/m² | - |
| 1777887816 | 6.67° C | 89% | 1017.5 hPa | 0 mm | - | 0 W/m² | - |
| 1777887513 | 6.67° C | 89% | 1017.4 hPa | 0 mm | - | 0 W/m² | - |
| 1777887209 | 6.67° C | 89% | 1017.3 hPa | 0 mm | - | 0 W/m² | - |
| 1777886905 | 6.67° C | 88% | 1017.5 hPa | 0 mm | - | 0 W/m² | - |
| 1777886600 | 6.67° C | 88% | 1017.5 hPa | 0 mm | - | 0 W/m² | - |
| 1777886298 | 6.67° C | 87% | 1017.3 hPa | 0 mm | - | 0 W/m² | - |
* Rain latest hour (hover to see other rain measurements)
** Current wind speed in m/s (hover to see current wind gust speed)